SCP
0 0 0 0 0 0 0 0 0 0 0 0 0 0 1 2 2 1 1 1 2 3 4 3 2 2 3 3 3 3 3 3 2 2 1 1 1 1 1 1 1 1 1 1
0 0 0 0 0 0 0 0 0 0 0 0 0 0 1 2 2 1 1 1 2 2 3 3 2 3 3 3 3 3 3 3 3 3 2 1 1 1 1 1 1 1 1 1
0 0 0 0 0 0 0 0 0 0 0 0 0 0 0 1 1 1 1 1 2 2 2 2 3 3 3 2 3 3 3 3 4 3 3 2 2 1 1 1 1 1 1 1
0 0 0 0 0 0 0 0 0 0 0 0 0 0 0 0 0 1 1 1 2 2 2 2 2 3 3 3 3 3 3 3 4 4 3 3 2 2 2 2 2 1 1 1
0 0 0 0 0 0 0 0 0 0 0 0 0 0 0 0 0 1 1 1 2 2 2 2 2 3 3 3 3 3 3 3 3 4 4 3 3 2 2 2 2 2 2 2
0 0 0 0 0 0 0 0 0 0 0 0 0 0 0 1 1 1 1 1 1 2 2 1 2 3 3 3 3 3 2 3 3 4 4 3 3 3 3 3 2 2 2 2
0 0 0 0 0 0 0 0 0 0 0 0 0 0 1 2 2 1 1 1 1 1 1 1 2 3 3 3 3 2 2 3 3 4 4 3 4 4 4 3 2 2 2 2
0 0 0 0 0 0 0 0 0 0 0 0 0 0 1 2 2 1 1 0 0 0 1 1 2 3 3 3 2 2 2 3 4 4 4 4 4 5 4 3 2 2 1 1
0 0 0 0 0 0 0 0 0 0 0 0 0 0 1 1 1 1 1 0 0 0 0 1 1 2 2 2 2 2 2 3 4 4 4 4 5 5 4 3 2 1 1 1
0 0 0 0 0 0 0 0 0 0 0 0 0 0 1 1 1 1 0 0 0 0 0 1 1 2 2 2 2 2 2 2 3 4 4 4 4 4 3 2 1 1 1 1
0 0 0 0 0 0 0 0 0 0 0 0 0 0 1 1 1 0 0 0 0 0 0 0 1 1 2 2 2 2 2 2 2 3 3 3 3 3 2 2 1 1 0 0
0 0 0 0 0 0 0 0 0 0 0 0 0 0 0 0 1 0 0 0 0 0 0 0 1 1 2 2 3 3 2 2 2 2 2 2 2 2 2 2 1 1 0 0
0 0 0 0 0 0 0 0 0 0 0 0 0 0 0 0 0 0 0 0 0 0 0 0 0 1 2 2 3 3 2 2 2 2 2 2 2 2 2 1 1 1 0 0
0 0 0 0 0 0 0 1 1 0 0 0 0 0 0 0 0 0 0 0 0 0 0 0 0 1 2 3 3 3 3 3 2 2 2 2 1 1 1 1 1 0 0 0
0 0 0 0 0 1 1 1 1 1 0 0 0 1 1 0 0 0 0 0 0 0 0 0 0 1 2 3 3 3 3 3 3 3 2 2 1 1 1 1 1 0 0 0
0 0 0 0 1 1 1 1 1 1 1 1 1 1 0 0 0 0 0 0 0 0 0 0 0 1 2 3 3 3 3 3 3 2 2 1 1 1 1 1 1 0 0 0
0 0 0 0 1 1 1 1 1 1 1 1 1 1 0 0 1 1 1 0 0 0 0 0 0 1 2 2 3 3 3 3 2 2 1 1 1 1 1 1 0 0 0 0
0 0 0 0 1 1 1 1 1 1 1 1 1 0 0 0 1 1 1 1 0 0 0 0 0 1 2 2 2 2 3 3 2 1 1 1 1 1 1 0 0 0 0 0
0 0 0 0 1 1 0 1 1 1 1 1 0 0 0 0 0 1 1 1 1 1 0 0 1 2 2 3 2 2 3 3 2 1 1 1 1 1 0 0 0 0 0 0
0 0 0 0 0 0 1 1 1 1 1 1 0 0 0 0 0 0 0 1 1 1 0 0 1 2 2 2 2 2 3 3 2 2 1 1 1 0 0 0 0 0 0 0
0 0 0 0 0 0 1 1 1 1 0 0 0 0 0 0 0 0 1 1 1 1 0 1 1 2 2 2 1 2 2 2 2 2 2 1 1 0 0 0 0 0 0 0
0 0 0 0 0 0 1 1 1 1 0 0 0 0 0 0 0 0 1 1 1 1 1 1 1 1 1 1 1 1 1 2 2 2 2 1 1 0 0 0 0 0 0 0
0 0 0 0 0 0 0 1 1 1 1 0 0 0 0 0 0 0 1 1 1 1 1 1 1 1 1 1 1 1 1 1 1 2 1 1 1 0 0 0 0 0 0 0
0 0 0 0 0 0 0 1 1 1 1 0 0 0 0 0 0 0 0 0 0 0 0 0 0 0 0 1 1 1 1 1 1 1 1 1 1 0 0 0 0 0 0 0
0 0 0 0 0 0 0 0 0 0 0 0 0 0 0 0 0 0 0 0 0 0 0 0 0 0 0 0 0 0 1 1 1 1 1 1 1 0 0 0 0 0 0 0
0 0 0 0 0 0 0 0 0 0 0 0 0 0 0 0 0 0 0 0 0 0 0 0 0 0 0 0 0 0 0 1 1 1 1 1 1 0 0 0 0 0 0 0
Wind_Speed
2 3 4 8 8 6 3 3 5 7 4 1 4 5 6 3 4 5 5 6 7 8 6 5 5 5 5 5 6 6 5 5 4 3 3 3 2 1 1 1 2 3 3 4
3 5 9 4 3 3 3 3 5 7 3 1 2 4 4 3 5 6 7 8 8 6 5 6 5 5 6 6 7 6 6 5 5 4 3 2 2 2 1 1 2 3 3 4
6 7 2 2 2 3 4 5 5 4 3 3 1 5 3 2 1 2 4 5 6 7 8 8 7 7 6 7 8 7 6 5 5 4 3 3 3 2 1 1 1 1 3 3
5 5 2 2 4 4 5 6 5 2 1 3 1 3 6 3 3 3 4 4 6 6 6 7 8 8 8 8 7 7 7 6 5 5 5 5 4 3 3 2 1 1 2 2
6 3 3 4 5 5 5 1 2 1 2 1 2 1 7 2 4 6 5 5 6 7 7 8 9 9 8 7 7 6 6 6 6 5 6 6 4 3 2 2 2 2 1 1
6 3 4 4 1 3 3 5 5 5 4 1 2 2 6 3 5 5 5 5 6 6 5 6 6 5 5 5 6 6 6 6 6 6 6 6 6 5 4 3 3 2 1 1
5 4 3 2 1 2 4 5 4 5 4 4 2 2 7 6 4 4 5 6 5 5 5 5 5 6 6 6 6 6 7 6 6 6 6 6 6 7 6 5 4 3 2 1
2 6 3 2 4 4 3 7 6 3 4 5 2 3 7 4 3 3 2 2 2 3 4 5 5 5 6 6 6 6 7 6 6 6 6 5 5 4 4 5 4 4 3 3
5 5 3 1 1 7 4 3 5 6 2 1 4 5 7 4 5 4 3 2 0 3 3 4 4 4 5 5 6 6 6 6 6 6 5 5 5 5 5 5 4 3 3 3
5 3 4 2 3 4 4 7 5 5 3 2 4 3 4 5 5 5 3 2 2 1 2 3 3 4 5 5 4 4 5 5 5 5 5 5 5 5 5 4 5 4 4 3
4 3 4 3 1 1 3 4 5 4 4 4 2 5 3 3 3 3 3 2 1 1 3 4 3 3 3 3 4 4 4 4 4 5 4 4 4 4 4 4 5 4 4 4
3 5 2 4 3 1 3 4 6 4 3 3 3 6 4 2 3 2 3 2 1 1 1 2 2 2 3 4 4 5 4 5 5 5 4 4 4 4 4 4 4 4 4 4
4 5 2 6 5 3 2 2 3 4 4 4 4 6 3 4 4 3 3 3 2 1 1 0 1 2 3 4 4 5 5 5 4 5 5 4 4 4 4 4 4 5 5 4
4 4 6 7 6 2 1 0 2 5 3 4 6 6 7 7 7 7 5 4 2 2 1 1 2 2 2 3 4 5 5 4 4 5 5 5 5 5 5 5 4 5 5 5
4 2 2 3 2 2 1 1 2 3 5 5 5 5 6 6 6 6 5 4 3 2 2 2 2 2 2 2 3 3 4 4 4 4 5 5 5 4 4 4 4 4 5 5
3 2 1 1 0 1 0 2 2 2 2 3 3 5 5 5 4 4 5 4 4 4 3 2 2 2 3 3 3 3 4 4 4 5 5 5 5 5 5 4 4 4 4 4
1 3 2 2 2 2 3 3 3 2 1 2 3 5 5 5 5 4 4 4 5 4 3 3 3 3 4 4 4 5 5 4 5 5 5 5 6 6 5 5 4 5 5 4
4 3 3 1 1 4 4 0 2 2 0 1 3 4 4 5 6 4 3 3 4 4 4 3 3 3 3 3 3 3 3 4 5 5 5 5 6 6 5 5 5 5 4 4
4 6 4 3 2 4 3 1 1 1 2 2 3 5 5 4 3 4 3 3 5 5 4 4 4 4 3 3 3 3 3 4 5 6 6 6 6 6 6 6 6 5 4 4
3 3 4 3 3 5 4 4 3 1 2 3 3 5 4 3 3 6 6 5 6 5 3 3 2 2 2 3 3 4 4 5 6 6 6 5 5 6 6 6 5 4 4 4
3 2 1 2 3 4 4 6 3 2 4 5 4 4 3 2 5 7 7 6 5 5 4 2 2 2 3 3 3 4 4 5 6 5 4 4 5 5 5 4 3 4 4 3
2 2 1 2 2 5 5 3 2 3 3 4 4 3 3 5 6 6 6 6 5 4 3 1 1 2 2 2 3 4 4 4 3 4 4 4 4 4 4 4 3 3 4 4
1 2 3 4 4 2 2 1 2 2 4 4 4 4 4 5 6 6 6 5 4 3 2 2 1 2 2 2 3 4 3 2 2 3 4 3 3 3 4 5 4 3 3 4
2 2 1 1 3 3 3 3 4 4 4 4 4 5 3 4 5 6 6 5 4 3 3 2 1 1 2 1 2 3 2 2 3 3 3 3 3 3 3 3 3 4 4 4
2 2 2 3 5 6 5 5 6 5 5 5 4 4 4 4 5 5 5 5 3 3 2 2 1 1 2 2 2 1 2 3 3 3 2 2 3 3 3 3 3 4 4 5
2 1 2 5 5 4 6 7 7 7 6 5 5 5 5 3 4 4 4 4 3 2 2 2 2 2 2 2 1 1 2 4 4 3 2 2 2 2 2 2 1 1 3 4
Wind_Direction
97 89 224 222 200 207 209 234 270 273 275 253 255 265 268 224 193 199 201 202 205 213 209 190 186 171 160 166 170 174 172 168 155 149 155 153 160 155 154 174 164 160 157 155
47 257 240 219 183 194 211 248 269 284 293 178 275 287 276 227 208 208 206 208 208 210 197 188 183 176 175 176 176 176 179 175 173 170 165 157 144 149 164 166 145 157 157 159
198 239 223 178 207 205 230 206 231 246 332 7 9 319 311 300 262 238 222 215 206 206 203 194 188 190 185 185 182 182 181 175 173 158 132 114 93 79 88 118 141 161 157 163
233 257 228 238 244 188 261 235 210 213 93 308 26 296 298 290 298 258 240 224 215 213 207 199 193 193 196 195 181 176 173 169 166 157 157 159 158 165 184 173 163 139 141 157
242 220 188 231 242 177 223 251 122 105 143 358 0 192 291 324 293 268 250 229 222 216 206 203 202 200 198 188 178 174 169 169 168 166 169 167 158 163 150 135 137 132 128 151
252 234 204 219 219 154 145 65 56 50 68 350 270 175 285 263 247 271 256 236 219 216 213 211 207 192 187 176 172 169 169 177 175 174 175 175 169 159 148 152 162 159 146 143
307 297 255 188 89 41 87 83 29 3 12 263 269 191 255 265 255 252 253 240 225 208 203 207 200 187 183 179 179 174 176 184 183 178 181 185 178 169 169 173 174 169 169 188
240 292 267 199 177 183 167 136 153 196 230 282 322 245 262 283 300 295 280 253 206 200 203 204 199 189 185 183 182 180 182 185 183 183 188 183 176 172 175 176 173 179 189 197
189 257 286 251 177 142 134 162 161 136 159 284 285 287 306 340 356 4 15 34 274 218 212 209 193 186 185 184 188 188 185 186 184 184 181 182 181 180 181 175 173 183 190 188
166 235 293 308 66 47 130 142 104 117 148 254 291 292 286 317 323 339 347 312 287 259 220 213 195 194 195 193 185 177 182 187 184 181 186 192 188 184 179 172 182 186 187 176
135 165 306 6 100 191 89 91 101 114 149 161 256 276 248 264 292 300 292 299 283 251 231 218 205 195 186 176 177 183 185 182 179 184 191 189 187 177 168 180 188 184 183 175
131 127 249 272 272 195 144 150 139 145 212 172 181 266 294 287 297 307 294 303 283 246 249 228 204 176 171 182 189 191 190 188 189 185 183 185 180 173 173 190 193 184 183 184
131 115 62 338 341 6 66 117 135 131 131 162 183 257 326 355 345 328 302 296 286 279 286 325 167 199 199 196 198 194 191 195 187 176 178 182 179 175 187 195 192 186 184 184
107 117 163 200 224 210 240 273 139 130 157 204 220 253 309 333 321 314 305 285 265 242 232 222 223 232 233 213 202 193 189 187 178 174 177 185 194 189 193 192 189 190 187 185
90 144 194 224 234 154 186 254 170 174 191 198 234 238 276 294 290 295 300 299 295 277 244 219 224 232 236 217 193 191 191 185 176 175 184 194 195 187 186 188 191 191 189 191
68 149 144 285 234 147 311 288 249 231 226 225 253 268 278 290 300 311 310 300 288 278 262 245 236 230 228 225 212 196 193 189 180 188 195 190 183 185 191 194 191 187 191 193
86 142 136 238 273 15 287 257 211 186 197 184 229 260 298 315 304 288 289 291 285 277 268 241 238 229 225 225 215 207 201 186 188 195 197 192 189 191 197 199 189 193 196 190
158 136 139 167 76 232 240 251 148 146 82 247 254 277 281 274 279 278 287 278 286 287 273 256 251 248 235 226 222 211 193 186 191 197 198 197 193 195 193 192 199 201 194 193
166 147 133 132 195 262 294 341 20 220 284 334 310 312 321 321 327 320 315 287 268 264 255 249 244 246 229 215 206 196 205 200 197 201 202 199 192 190 190 198 206 201 190 199
74 99 122 140 180 226 266 310 308 165 269 328 322 308 316 356 338 294 305 299 291 284 264 247 244 240 227 229 192 188 206 205 211 211 207 198 190 188 193 201 202 197 191 199
50 51 125 168 211 260 299 317 10 143 265 313 312 303 301 265 251 278 298 297 286 278 266 240 225 232 230 215 189 199 206 217 218 207 197 188 187 190 190 189 190 188 189 187
144 139 174 155 196 256 330 21 73 248 290 305 304 307 303 289 294 306 311 306 300 299 295 271 242 259 252 200 186 206 216 223 206 184 183 185 183 187 180 172 184 186 179 187
139 196 195 191 210 263 340 327 287 274 295 300 301 305 304 306 308 314 316 312 309 315 314 298 250 274 276 212 191 204 231 194 158 164 175 177 173 176 171 172 180 181 179 188
337 6 60 296 293 308 325 331 321 310 294 295 299 304 306 302 309 316 319 318 320 325 328 325 320 304 295 268 221 206 191 158 146 160 170 161 163 171 171 172 176 178 185 194
298 354 345 294 306 322 332 339 331 329 328 322 317 308 303 302 307 309 313 316 315 313 315 319 313 288 281 261 245 226 172 142 139 153 161 158 164 173 173 178 188 193 202 196
262 219 230 257 271 277 287 307 317 321 324 320 317 319 318 308 298 304 306 309 309 308 318 325 319 308 297 269 240 210 173 150 142 144 152 158 163 175 176 175 189 243 226 224